Change the Weather History Date:

Sunday, September 28, 2014

  Actual Average Record
Temperature  
Mean Temperature 65 °F 56 °F  
Max Temperature 80 °F 68 °F 88 °F (1952)
Min Temperature 50 °F 43 °F 26 °F (1967)
Degree Days  
Heating Degree Days 0 10  
Month to date heating degree days 164 153  
Since 1 July heating degree days 196 185  
Cooling Degree Days 0 1  
Month to date cooling degree days 26 48  
Year to date cooling degree days 435 588  
Growing Degree Days 15 (Base 50)    
Moisture  
Dew Point 54 °F    
Average Humidity 70    
Maximum Humidity 100    
Minimum Humidity 39    
Precipitation  
Precipitation 0.00 in 0.11 in 0.48 in (1968)
Month to date precipitation 1.20 3.13  
Sea Level Pressure  
Sea Level Pressure 30.11 in    
Wind  
Wind Speed 6 mph (South)    
Max Wind Speed 14 mph    
Max Gust Speed 18 mph    
Visibility 5 miles    
Events Fog    
T = Trace of Precipitation, MM = Missing Value Source: NWS Daily Summary

Daily Weather History Graph

Daily Weather History Graph

Search for Another Location

Airport or City:

Trip Planner

Search our weather history database for the weather conditions in past years. The results will help you decide how hot, cold, wet, or windy it might be!

Date:

Astronomy

Sep. 28, 2014 Rise Set
Actual Time 7:13 AM CDT 7:05 PM CDT
Civil Twilight 6:44 AM CDT 7:33 PM CDT
Nautical Twilight 6:11 AM CDT 8:06 PM CDT
Astronomical Twilight 5:37 AM CDT 8:40 PM CDT
Moon 11:34 AM CDT (9/28) 9:43 PM CDT (9/28)
Length of Visible Light 12h 49m
Length of Day
11h 52m
Waxing Crescent, 19% of the Moon is Illuminated
Sep 28
Waxing Crescent
Oct 1
First Quarter
Oct 8
Full
Oct 15
Last Quarter
Oct 23
New

Hourly Weather History & Observations

Time (CDT) Temp. Heat Index Dew Point Humidity Pressure Visibility Wind Dir Wind Speed Gust Speed Precip Events Conditions
12:52 AM 57.0 °F - 55.9 °F 96% 30.11 in 6.0 mi SSE 3.5 mph - N/A   Clear
1:52 AM 55.9 °F - 55.0 °F 97% 30.12 in 5.0 mi South 4.6 mph - N/A   Clear
2:52 AM 57.0 °F - 55.9 °F 96% 30.11 in 4.0 mi South 5.8 mph - N/A   Clear
3:14 AM 54.0 °F - 53.1 °F 97% 30.12 in 2.0 mi South 3.5 mph - N/A   Clear
3:27 AM 55.0 °F - 54.0 °F 96% 30.12 in 1.5 mi South 5.8 mph - N/A   Clear
3:37 AM 55.0 °F - 55.0 °F 100% 30.12 in 0.8 mi South 4.6 mph - N/A   Clear
3:45 AM 54.0 °F - 54.0 °F 100% 30.12 in 0.2 mi South 5.8 mph - N/A Fog Fog
3:52 AM 53.1 °F - 53.1 °F 100% 30.12 in 0.2 mi South 4.6 mph - N/A Fog Fog
4:35 AM 53.1 °F - 53.1 °F 100% 30.13 in 0.2 mi SSE 4.6 mph - N/A Fog Fog
4:48 AM 53.6 °F - 53.6 °F 100% 30.13 in 1.2 mi SSE 4.6 mph - N/A   Clear
4:52 AM 53.1 °F - 53.1 °F 100% 30.12 in 1.5 mi SSE 4.6 mph - N/A   Clear
5:04 AM 52.0 °F - 52.0 °F 100% 30.13 in 0.8 mi SSE 4.6 mph - N/A   Clear
5:21 AM 52.0 °F - 52.0 °F 100% 30.13 in 0.2 mi Calm Calm - N/A Fog Fog
5:52 AM 51.1 °F - 51.1 °F 100% 30.12 in 0.2 mi Calm Calm - N/A Fog Fog
6:52 AM 52.0 °F - 52.0 °F 100% 30.14 in 0.2 mi South 3.5 mph - N/A Fog Fog
7:27 AM 52.0 °F - 52.0 °F 100% 30.14 in 0.2 mi South 5.8 mph - N/A Fog Fog
7:37 AM 50.0 °F - 50.0 °F 100% 30.14 in 0.2 mi South 5.8 mph - N/A Fog Fog
7:52 AM 52.0 °F - 52.0 °F 100% 30.14 in 0.8 mi South 5.8 mph - N/A   Mist
7:58 AM 52.0 °F - 52.0 °F 100% 30.15 in 1.2 mi South 5.8 mph - N/A   Partly Cloudy
8:27 AM 55.9 °F - 55.9 °F 100% 30.15 in 2.0 mi South 4.6 mph - N/A   Clear
8:52 AM 57.9 °F - 57.9 °F 100% 30.15 in 3.0 mi South 5.8 mph - N/A   Clear
9:52 AM 66.0 °F - 59.0 °F 78% 30.15 in 8.0 mi South 9.2 mph - N/A   Scattered Clouds
10:52 AM 73.0 °F - 57.0 °F 57% 30.14 in 10.0 mi South 9.2 mph - N/A   Clear
11:52 AM 75.9 °F - 57.0 °F 52% 30.13 in 10.0 mi South 8.1 mph - N/A   Clear
12:52 PM 78.1 °F - 55.9 °F 46% 30.12 in 10.0 mi SSW 6.9 mph - N/A   Clear
1:52 PM 79.0 °F - 55.0 °F 44% 30.10 in 10.0 mi Variable 6.9 mph - N/A   Scattered Clouds
2:52 PM 79.0 °F - 54.0 °F 42% 30.08 in 10.0 mi South 10.4 mph - N/A   Scattered Clouds
3:52 PM 80.1 °F 80.0 °F 54.0 °F 40% 30.06 in 10.0 mi SSW 10.4 mph - N/A   Scattered Clouds
4:52 PM 79.0 °F - 53.1 °F 40% 30.06 in 10.0 mi South 10.4 mph - N/A   Clear
5:52 PM 78.1 °F - 53.1 °F 42% 30.05 in 10.0 mi South 6.9 mph - N/A   Clear
6:52 PM 73.9 °F - 53.1 °F 48% 30.05 in 10.0 mi South 4.6 mph - N/A   Clear
7:52 PM 68.0 °F - 55.0 °F 63% 30.06 in 10.0 mi South 5.8 mph - N/A   Partly Cloudy
8:52 PM 64.9 °F - 55.0 °F 70% 30.06 in 10.0 mi South 5.8 mph - N/A   Clear
9:52 PM 60.1 °F - 55.0 °F 83% 30.07 in 10.0 mi South 3.5 mph - N/A   Clear
10:52 PM 59.0 °F - 54.0 °F 83% 30.06 in 9.0 mi South 4.6 mph - N/A   Scattered Clouds
11:52 PM 60.1 °F - 55.0 °F 83% 30.05 in 10.0 mi SSW 5.8 mph - N/A   Clear